Estación Meteorológica Peña el Pijo (Robertgarden) [ 09/30/20 00:25:32 CEST ]

Fecha Hora Presion(HPa) Temp (°C) Humedad % Rocio (°C) Viento ( m/s) Direccion Lluvia 1Hora(mm) Lluvia 24H(mm) LLuvia Total(mm)
2020-Apr-24 01:09:12 1007.600 - - - - W     39.88
2020-Apr-24 02:09:09 1007.300 - - - - W     39.88
2020-Apr-24 03:09:07 1006.700 - - - - W     39.88
2020-Apr-24 04:09:21 1006.600 - - - - W     39.88
2020-Apr-24 05:09:28 1006.200 - - - - W     39.88
2020-Apr-24 06:08:51 1005.800 - - - - W     39.88
2020-Apr-24 07:09:27 1005.700 - - - - W     39.88
2020-Apr-24 08:09:26 1005.700 - - - - W     39.88
2020-Apr-24 09:09:50 1005.900 - - - - W     39.88
2020-Apr-24 10:09:44 1005.900 - - - - W     39.88
2020-Apr-24 11:09:05 1005.800 - - - - W     39.88
2020-Apr-24 12:09:08 1005.400 - - - - W     39.88
2020-Apr-24 13:09:05 1004.800 - - - - W     39.88
2020-Apr-24 14:09:25 1003.800 - - - - W     39.88
2020-Apr-24 15:09:47 1003.400 - - - - W     39.88
2020-Apr-24 16:09:10 1003.200 - - - - W     39.88
2020-Apr-24 17:09:11 1002.600 - - - - W     39.88
2020-Apr-24 18:08:48 1002.100 - - - - W     39.88
2020-Apr-24 19:09:14 1001.900 - - - - W     39.88
2020-Apr-24 20:09:26 1002.100 - - - - W     39.88
2020-Apr-24 21:09:12 1002.400 - - - - W     39.88
2020-Apr-24 22:09:47 1003.300 - - - - W     39.88
2020-Apr-24 23:09:00 1003.200 - - - - W     39.88

Temperatura Máxima:    Temperatura Mínima:
Presión Máxima:1007.600 Hpa    Presión Mínima:1001.900 Hpa


Volver